Regional Weather Roundup
Issued by NWS Upton, NY

Current Version | Previous Version | Text Only | Print | Product List | Glossary On
Versions: 1 2 3 4 5 6 7 8 9 10 11 12 13 14 15 16 17 18 19 20 21 22 23 24 25 26 27 28 29 30
000
ASUS41 KOKX 240204
RWROKX

REGIONAL WEATHER ROUNDUP
NATIONAL WEATHER SERVICE NEW YORK NY
1000 PM EDT TUE AUG 23 2016

NOTE: "FAIR" INDICATES FEW OR NO CLOUDS BELOW 12,000 FEET WITH NO
SIGNIFICANT WEATHER AND/OR OBSTRUCTIONS TO VISIBILITY.

NYZ071-072-176-178-NJZ106-104-240300-
NEW YORK CITY METRO AREA

CITY           SKY/WX    TMP DP  RH WIND       PRES   REMARKS
Central Park     N/A     75  55  49 VRB3      30.29R
LaGuardia APRT CLEAR     77  59  53 S5        30.26R
Kennedy INTL   PTCLDY    73  64  73 SW13G18   30.27R
Newark/Liberty PTCLDY    76  54  46 SW5       30.25S
Bronx Bot Gard   N/A     70  59  68 E2        30.28S
Wall St Helipt CLEAR     75  63  64 SW6       30.27R
Teterboro      CLEAR     73  56  54 SW5       30.25
$$

NYZ177-179-078>081-240300-
LONG ISLAND NEW YORK

CITY           SKY/WX    TMP DP  RH WIND       PRES   REMARKS
Farmingdale    CLEAR     72  61  68 S7        30.27S
MacArthur/ISP  CLEAR     70  58  65 SW7       30.27R
Shirley        CLEAR     68  58  70 S3        30.28R
Riverhead      NOT AVBL
Westhampton    CLEAR     60  55  83 CALM      30.29R
Southampton      N/A     70  63  78 SW3       30.24S
Bridgehampton    N/A     63  59  88 CALM      30.27R
East Hampton   FAIR      60  57  91 CALM      30.27R
Montauk          N/A     69  59  70 SW5       30.28R
$$

NYZ052-065-067-240300-
HUDSON VALLEY

CITY           SKY/WX    TMP DP  RH WIND       PRES   REMARKS
White Plains   CLEAR     67  59  75 SW3       30.27R
Newburgh       CLEAR     68  61  77 W5        30.27R
Montgomery     CLEAR     62  59  90 SW3       30.26R
Poughkeepsie   CLEAR     67  60  78 CALM      30.24R
Albany         CLEAR     67  59  75 CALM      30.24
$$

NJZ001-105-106-008-010-013-015-019>022-104-240300-
NEW JERSEY

CITY           SKY/WX    TMP DP  RH WIND       PRES   REMARKS
Newark/Liberty PTCLDY    76  54  46 SW5       30.25S
Teterboro      CLEAR     73  56  54 SW5       30.25
Caldwell         N/A     70  59  68 CALM      30.27R
Morristown     NOT AVBL
Somerville     CLEAR     63  60  90 CALM      30.25R
Linden         FAIR      74  54  48 CALM      30.28R
Sussex         CLEAR     63  61  93 CALM      30.28R
Abdover          N/A     61  60  97 CALM      30.29R
Trenton        CLEAR     69  57  65 CALM      30.27R
Millville      CLEAR     63  61  93 CALM      30.29R
Atlantic City  CLEAR     69  58  67 S5        30.29R
Wrightstown    CLEAR     65  59  78 S7        30.26R
Toms River     CLEAR     63  58  83 CALM      30.30R
Belmar         CLEAR     68  57  68 S5        30.29R
$$

PAZ047>061-062-071-240300-
EASTERN PENNSYLVANIA

CITY           SKY/WX    TMP DP  RH WIND       PRES   REMARKS
Philadelphia   CLEAR     75  58  55 SW7       30.28R
Allentown      CLEAR     66  58  75 CALM      30.28
Scranton       CLEAR     66  57  72 SE6       30.28S
$$

CTZ002-004>006-009-010-012-RIZ004-006-007-MAZ004-011-015-240300-
SOUTHERN NEW ENGLAND
 IN CT

CITY           SKY/WX    TMP DP  RH WIND       PRES   REMARKS
Bradley INTL   CLEAR     68  56  65 W5        30.25
Hartford       CLEAR     70  58  65 SE3       30.24S
Danbury        CLEAR     61  58  90 SW3       30.28R
Wtrbury/Oxford   N/A     61  54  77 CALM      30.30S
Bridgeport     CLEAR     75  61  61 SW10      30.26R
Meriden        CLEAR     64  58  80 CALM      30.26R
New Haven      CLEAR     73  60  63 SW8       30.27R
Chester        FAIR      68  57  68 SW5       30.27S
Groton         CLEAR     71  61  70 SW8       30.26R
Wilimantic     CLEAR     68  59  73 CALM      30.26R

 IN RI

CITY           SKY/WX    TMP DP  RH WIND       PRES   REMARKS
Providence     CLEAR     68  56  65 SW8       30.25
Block Island   CLEAR     68  60  75 SW9       30.28R
Westerly       CLEAR     70  58  65 SW5       30.27R
 IN MA

CITY           SKY/WX    TMP DP  RH WIND       PRES   REMARKS
Boston         CLEAR     74  54  49 SW9       30.22R
Worcester      CLEAR     63  53  70 SW7       30.26S
Westfield      CLEAR     63  58  83 CALM      30.25R
Provincetown   CLEAR     66  60  81 SW9       30.24R
Nantucket      CLEAR     66  57  72 SW8       30.26S
$$

ANZ330-335-338-340-345-350-353-355-240300-
COASTAL MARINE OBSERVATIONS


STATION/POSITION TIME  SKY/WX   TEMP    WIND        PRES    VSBY  WAVE
                                AIR SEA DIR/SP/G                  HT/PER
                 (UTC)          (F)     (DEG/KT/KT) (MB)    (MI)  (FT/S)
NY HARB ENTRANCE 0050            74 77  210/ 14/ 16 1024.4          2/ 3
20S FIRE ISLAND  0050            74 77  200/ 10/ 12 1024.7          2/13
GREAT SOUTH BAY  0115            74 80  210/ 10/ 12   N/A
23 SSW MONTAUK P 0050            73 74  220/  8/ 10 1025.3          1/12
15 E BARNEGAT LI 0100               77                N/A           2/13
HUDSON CANYON    0050            73 78              1025.4          2/10
KINGS POINT      0100            73 76              1024.4
EXECUTION ROCKS  0100            74     170/ 10/ 12   N/A
CENTRAL LI SOUND 0100            73 75  220/ 16/ 17   N/A           1/ 2
EASTERN LI SOUND 0100            71 69  220/ 12/ 16   N/A
ROBBINS REEF     0106            77                 1023.8
$$


>>>>>>>>>>>>>>>>>>>>>>>>>>>> KEY <<<<<<<<<<<<<<<<<<<<<<<<<<<
>                                                          <
>     SKY/WX - Sky Condition/Present Weather               <
>     TMP    - Temperature in Fahrenheit                   <
>     DP     - Dew Point in Fahrenheit                     <
>     RH     - Relative Humidity in Percent                <
>     WIND   - Direction (from) and Speed in MPH           <
>     PRES   - Mean Sea Level Pressure (inches of Hg)      <
>     WCI    - Wind Chill Index                            <
>     VSB    - VISIBILITY IN MILES                         <
>     HX     - HEAT INDEX                                  <
>     TC     - TEMPERATURE IN CELSIUS                      <
>     VRB    - VARIABLE WIND DIRECTION                     <
>                                                          <
>>>>>>>>>>>>>>>>>>>>>>>>>>>> KEY <<<<<<<<<<<<<<<<<<<<<<<<<<<




USA.gov is the U.S. government's official web portal to all federal, state and local government web resources and services.